Weather History for Faith, SD

Change the Weather History Date:

Friday, May 24, 2013

  Actual Average Record
Temperature  
Mean Temperature 64 °F 57 °F  
Max Temperature 77 °F 69 °F 80 °F (2006)
Min Temperature 50 °F 46 °F 28 °F (2002)
Degree Days  
Heating Degree Days 1 8  
Month to date heating degree days 262 269  
Since 1 July heating degree days 7503 7568  
Cooling Degree Days 0 0  
Month to date cooling degree days 13 0  
Year to date cooling degree days 13 1  
Growing Degree Days 12 (Base 50)    
Moisture  
Dew Point 52 °F    
Average Humidity 75    
Maximum Humidity 100    
Minimum Humidity 50    
Precipitation  
Precipitation 0.00 in 0.10 in 0.69 in (2008)
Month to date precipitation 2.13 2.34  
Year to date precipitation 4.31 5.57  
Sea Level Pressure  
Sea Level Pressure 29.92 in    
Wind  
Wind Speed 17 mph (SE)    
Max Wind Speed 33 mph    
Max Gust Speed 44 mph    
T = Trace of Precipitation, MM = Missing Value Source: NWS Daily Summary

Daily Weather History Graph

Daily Weather History Graph

Search for Another Location

Airport:

Trip Planner

Search our weather history database for the weather conditions in past years. The results will help you decide how hot, cold, wet, or windy it might be!

Date:

Astronomy

May. 24, 2013 Rise Set
Actual Time 5:09 AM MDT 8:20 PM MDT
Civil Twilight 4:34 AM MDT 8:56 PM MDT
Nautical Twilight 3:48 AM MDT 9:42 PM MDT
Astronomical Twilight 2:52 AM MDT 10:38 PM MDT
Moon 8:03 PM MDT (5/24) 4:46 AM MDT (5/24)
Length of Visible Light 16h 21m
Length of Day
15h 10m
Full, 100% of the Moon is Illuminated
May 24
Full
May 24
Full
May 31
Last Quarter
Jun 8
New
Jun 16
First Quarter

Hourly Weather History & Observations

Time (MDT) Temp. Dew Point Humidity Pressure Visibility Wind Dir Wind Speed Gust Speed Precip Events Conditions
12:56 AM 53.1 °F 44.1 °F 71% 30.02 in - SE 26.5 mph 36.8 mph N/A   Unknown
1:56 AM 51.1 °F 45.0 °F 80% 30.01 in - SE 20.7 mph 27.6 mph N/A   Unknown
2:56 AM 50.0 °F 45.0 °F 83% 29.97 in - SE 23.0 mph 31.1 mph N/A   Unknown
3:56 AM 53.1 °F 46.0 °F 77% 29.94 in - SE 26.5 mph 35.7 mph N/A   Unknown
4:56 AM 54.0 °F 46.9 °F 77% 29.92 in - SE 24.2 mph 38.0 mph N/A   Unknown
5:56 AM 55.0 °F 46.9 °F 74% 29.90 in - SSE 31.1 mph 43.7 mph N/A   Unknown
6:56 AM 55.0 °F 48.0 °F 77% 29.90 in - SSE 31.1 mph 40.3 mph N/A   Unknown
7:56 AM 55.9 °F 50.0 °F 80% 29.89 in - SSE 29.9 mph 40.3 mph N/A   Unknown
8:56 AM 55.9 °F 51.1 °F 84% 29.91 in - SSE 24.2 mph 40.3 mph N/A   Unknown
9:56 AM 60.1 °F 52.0 °F 75% 29.90 in - SSE 26.5 mph 34.5 mph N/A   Unknown
10:56 AM 64.0 °F 54.0 °F 70% 29.90 in - SSE 28.8 mph 36.8 mph N/A   Unknown
11:56 AM 68.0 °F 55.9 °F 65% 29.88 in - South 21.9 mph 29.9 mph N/A   Unknown
12:56 PM 72.0 °F 57.0 °F 59% 29.88 in - South 16.1 mph - N/A   Unknown
1:56 PM 75.0 °F 57.9 °F 55% 29.86 in - SSW 11.5 mph 17.3 mph N/A   Unknown
2:56 PM 73.9 °F 55.9 °F 53% 29.88 in - SSE 5.8 mph - N/A   Unknown
3:56 PM 75.9 °F 55.9 °F 50% 29.86 in - West 5.8 mph - N/A   Unknown
4:56 PM 75.9 °F 57.9 °F 54% 29.88 in - NNW 8.1 mph - N/A   Unknown
5:56 PM 73.0 °F 55.9 °F 55% 29.89 in - North 15.0 mph 25.3 mph N/A   Unknown
6:56 PM 72.0 °F 55.9 °F 57% 29.90 in - NNW 13.8 mph - N/A   Unknown
7:56 PM 66.0 °F 54.0 °F 65% 29.92 in - North 9.2 mph - N/A   Unknown
8:56 PM 61.0 °F 53.1 °F 75% 29.95 in - North 5.8 mph - N/A   Unknown
9:56 PM 62.1 °F 54.0 °F 75% 29.97 in - North 6.9 mph - N/A   Unknown
10:56 PM 60.1 °F 55.9 °F 86% 29.96 in - East 5.8 mph - N/A   Unknown
11:56 PM 57.9 °F 57.0 °F 97% 29.94 in - ENE 9.2 mph - N/A   Unknown